Regional Weather Roundup
Issued by NWS Cleveland, OH

Home | Current Version | Previous Version | Graphics & Text | Print | Product List | Glossary On
Versions: 1 2 3 4 5 6 7 8 9 10 11 12 13 14 15 16 17 18 19 20 21 22 23 24 25 26 27 28 29 30 31 32 33 34 35 36 37 38 39 40 41 42 43 44 45 46 47 48 49 50
000
ASUS41 KCLE 251202
RWRCLE
OHIO REGIONAL WEATHER ROUNDUP
NATIONAL WEATHER SERVICE CLEVELAND, OH
700 AM EST THU DEC 25 2014

NOTE: "FAIR" INDICATES FEW OR NO CLOUDS BELOW 12,000 FEET WITH NO
SIGNIFICANT WEATHER AND/OR OBSTRUCTIONS TO VISIBILITY.

OHZ001>008-015>018-024>027-034-035-043-044-251300-
   NORTHWEST OHIO

CITY           SKY/WX    TMP DP  RH WIND       PRES   REMARKS
DEFIANCE       CLOUDY    38  31  76 W10       29.84R
FINDLAY        CLOUDY    38  33  82 W20       29.83R
TOLEDO EXPRESS LGT RAIN  36  34  92 SW20G28   29.80R
TOLEDO EXEC    CLOUDY    38  33  82 W16G25    29.81R
LIMA           CLOUDY    38  33  82 W15       29.85R
$$

OHZ009>014-019>023-028>033-038-089-251300-
   NORTHEAST OHIO

CITY           SKY/WX    TMP DP  RH WIND       PRES   REMARKS
CLE-HOPKINS    CLOUDY    38  32  79 W23G30    29.80R
CLE-LAKEFRONT  CLOUDY    39  33  79 SW20G26   29.77R
CUY CO. ARPT   CLOUDY    41  36  81 W17G29    29.76
LORAIN-ELYRIA  CLOUDY    37  33  85 W20       29.80R
ASHTABULA      CLOUDY    38  33  82 W16       29.74R
AKRON-CANTON   CLOUDY    38  32  79 W15G25    29.79R
WOOSTER        CLOUDY    37  32  82 W20G31    29.81R
MANSFIELD      CLOUDY    36  33  89 W13G25    29.81R
YOUNGSTOWN     LGT RAIN  37  33  85 SW14G25   29.75R
$$

OHZ042-051>053-060>062-070>072-077>081-251300-
  SOUTHWEST OHIO

CITY           SKY/WX    TMP DP  RH WIND       PRES   REMARKS
CINC-COVINGTON CLOUDY    37  32  82 SW8       29.97R
CINC-LUNKEN    CLOUDY    38  34  85 SW13G20   29.99R
HAMILTON       CLOUDY    38  34  85 W8        29.97R
DAYTON         CLOUDY    37  33  85 W15       29.92R
WRIGHT-PAT AFB NOT AVBL
DAYTON GENERAL CLOUDY    37  33  85 W10       29.92R
WILMINGTON     CLOUDY    36  32  85 W16       29.92R
$$

OHZ036-037-039>041-045>050-054>059-063>069-073>076-082>088-251300-
  CENTRAL AND SOUTHEAST OHIO

CITY           SKY/WX    TMP DP  RH WIND       PRES   REMARKS
COLUMBUS       CLOUDY    38  32  79 W17       29.88R
OSU AIRPORT    LGT RAIN  38  32  79 W14G24    29.88R
BOLTON FIELD   NOT AVBL
RICKENBACK AFB NOT AVBL
NEWARK         CLOUDY    39  33  79 W15G25    29.87R
MARION         CLOUDY    37  32  82 W17G23    29.85R
LANCASTER      CLOUDY    38  34  85 W14G20    29.90R
ZANESVILLE     CLOUDY    37  32  82 W13       29.87R
NEW PHILLY     CLOUDY    39  33  79 W10G17    29.84R
$$



USA.gov is the U.S. government's official web portal to all federal, state and local government web resources and services.